Showing default

COSMOS 1997, 19788

Orbit data source: Space-Track

COSMOS 1997, 19788 is a payload satellite owned by UNKS (CIS) in LEO that was launched on Fri, 10 Feb 1989 UTC via a TSIKLON-3 launch vehicle from the Plesetsk Missile And Space Complex (PKMTR). Payload-class satellites include a variety of spacecraft equipped with specific instruments for various scientific and technological missions. These include communications satellites like Starlink; space stations such as the ISS; scientific satellites like the Hubble; Earth observation satellites from companies like Planet Labs, Umbra, and HawkEye 360; GPS; miniature CubeSats for education and research; and military/defense satellites.

Loading next visibility...
Identifier
19788, 1989-009D
Orbit
LEO
Country
Flag of CISCIS
Related business
Manufacturer
NPO PM
Mission
Defense Communications
Bus & Motor
STRELA-3, Unknown motor
Mass
225 kg wet, 225 kg dry
Launch date (UTC)
1989-02-10 (37 years ago)
Launch vehicle
TSIKLON-3
Launch site
Plesetsk Missile And Space Complex (PKMTR)
Object type
Payload
Rocket body
Debris
Shape & HBR
Cyl, 0.8 m
Radar Cross Section
1.257 m², Large (>1 m²)

Expand to show TLE details & history
Last TLE update: 13 hours ago

TLE from 13 hours ago
0 COSMOS 1997
1 19788U 89009D   25258.82477817  .00000024  00000-0  73431-4 0  9993
2 19788  82.6242 175.2793 0008331 247.5135 168.3245 12.63681730687855
Epoch: 2025-09-15T19:47Z
TLE epoch observation values (Epoch: 2025-09-15T19:47:40.833Z)
Latitude
55.25591°
Longitude
-105.96169°
Altitude
1,423.241 km
Speed
7.151 km/s
True Right ascension
12h 23m 55s
True Declination
55° 06' 30"
Sunlit
Object was in daylight at epoch
Visualization orbit readout
Latitude
Unknown
Longitude
Unknown
Altitude
Unknown
Speed
Unknown
Apparent Right ascension
Unknown
Apparent Declination
Unknown
Sunlit
N/A
Visualization observer readout
Local Sidereal Time
01:58:58
Azimuth
Unknown
Elevation
Unknown
Doppler factor
Unknown
Orbital elements
Apogee altitude
1,411.586 km
Perigee altitude
1,398.618 km
Semi-major axis
7,783.239 km
Eccentricity
0.00083
Inclination
82.6242°
RAAN
175.2793°
Arg. of periapsis
247.5135°
True anomaly
168.3438°
Mean anomaly
168.3245°
Eccentric anomaly
168.33415°
Mean motion
3.16084 °/min
Orbital period
113.89 mins
BSTAR
0.000073431
Loading maneuver chart data...
Computing Atmospheric mass density...
Loading historical data...
Loading historical data...
Loading historical data...
Loading historical data...
Loading historical data...
Loading historical data...
Loading historical data...

Documentation

Showing up to 5 results
|